Location: Beaurecueil
(43.5122°N, 5.5450°E)
Time: 14:14:16
(UTC+00:00)

ARIANE 5 R/B - Pass Details

Date: 18 September 2020
Orbit: 620 x 657 km, 98.2° (Epoch: 23 October)

Event Time Altitude Azimuth Distance (km) Brightness Sun altitude
Exits shadow 19:37:43 19° 41° (NE) 1,481 4.3 -21.2°
Drops below altitude 10° 19:39:48 10° 15° (NNE) 2,002 5.3 -21.5°
Sets 19:42:22 0° 1° (N) 2,910 6.3 -22.0°
